THORAD AGENA D DEB, 4715

Orbit data source: Space-Track

THORAD AGENA D DEB, 4715 is space debris in SSO originally from a launch on Wed, 08 Apr 1970 UTC launched from the Air Force Western Test Range (AFWTR). Debris objects in space refer to the collection of defunct objects orbiting the Earth. Examples of debris include non-operational satellites, rocket bodies, and fragments generated from explosions, collisions, or faulty payload assembly.

Loading next visibility...
Identifier
4715, 1970-025BZ
Orbit
SSO
Country
Flag of USUS
Related business
Manufacturer
Unknown
Mission
Spacecraft
Bus & Motor
Unknown
Mass
Unknown
Launch date (UTC)
1970-04-08 (56 years ago)
Launch vehicle
Unknown
Launch site
Air Force Western Test Range (AFWTR)
Object type
Payload
Rocket body
Debris
Shape & HBR
Unknown shape, 0.1 m
Radar Cross Section
Small (<0.1 m²)

Expand to show TLE details & history
Last TLE update: 10 hours ago

TLE from 10 hours ago
0 THORAD AGENA D DEB
1  4715U 70025BZ  26036.75444131  .00000337  00000-0  34897-3 0  9994
2  4715  99.1364 101.7056 0036579 101.8501  25.9885 13.82466654795279
Epoch: 2026-02-05T18:06Z
TLE epoch observation values (Epoch: 2026-02-05T18:06:23.729Z)
Latitude
51.156°
Longitude
-114.33626°
Altitude
939.213 km
Speed
7.399 km/s
True Right ascension
19h 32m 39s
True Declination
50° 59' 31"
Sunlit
Object was in daylight at epoch
Visualization orbit readout
Latitude
Unknown
Longitude
Unknown
Altitude
Unknown
Speed
Unknown
Apparent Right ascension
Unknown
Apparent Declination
Unknown
Sunlit
N/A
Visualization observer readout
Local Sidereal Time
05:56:41
Azimuth
Unknown
Elevation
Unknown
Doppler factor
Unknown
Orbital elements
Apogee altitude
979.195 km
Perigee altitude
925.566 km
Semi-major axis
7,330.517 km
Eccentricity
0.00366
Inclination
99.1364°
RAAN
101.7056°
Arg. of periapsis
101.8501°
True anomaly
26.17293°
Mean anomaly
25.9885°
Eccentric anomaly
26.08064°
Mean motion
3.45813 °/min
Orbital period
104.1 mins
BSTAR
0.00034897
Loading maneuver chart data...
Computing Atmospheric mass density...

Documentation

Showing up to 5 results
|